STARLINK-32607

Last updated on Thu Nov 21 2024 00:02:07 GMT+0000 (Coordinated Universal Time)

1 61977U 24210U 24325.66668981 -.00941757 27430-3 -25556-2 0 9994 2 61977 43.0027 353.4717 0001601 284.1839 83.4997 15.93282150 2234
UTC large
Height (km)
Speed (km/s)
/
Latitude / Longitude
Inclination (degrees)
Orbital Period (minutes)
Azimuth
Elevation
Range (km)
Doppler Factor

Next 0 passes for location: London (51.5072 / 0.1276)

Sorry there are no passes over London.